Location: Ames
(42.0350°N, 93.6200°W)
Time: 20:38:47
(UTC-05:00)

ISS - All Passes

Search period start: 31 May 2016 00:00
Search period end: 10 June 2016 00:00
Orbit: 402 x 404 km, 51.6° (Epoch: 31 May)

Date Brightness Start Highest point End Pass type
(mag) Time Alt. Az. Time Alt. Az. Time Alt. Az.
31 May - 01:00:44 10° NNW 01:03:03 18° NNE 01:05:21 10° ENE visible
31 May - 02:36:49 10° NW 02:40:01 54° NNE 02:43:14 10° ESE visible
31 May - 04:13:53 10° W 04:16:12 18° SW 04:18:31 10° S night (unlit)
31 May - 19:18:22 10° SSE 19:19:46 12° SE 19:21:12 10° ESE daylight
31 May - 20:52:32 10° WSW 20:55:47 78° NW 20:59:04 10° NE daylight
31 May - 22:30:09 10° WNW 22:32:38 20° NNW 22:35:09 10° NE visible
01 Jun - 00:07:55 10° NW 00:10:00 16° N 00:12:04 10° NE visible
01 Jun - 01:44:09 10° NW 01:47:09 33° NNE 01:50:10 10° E visible
01 Jun - 03:20:36 10° WNW 03:23:35 34° SW 03:26:35 10° SSE visible
01 Jun - 19:59:51 10° SW 20:03:03 54° SE 20:06:15 10° ENE daylight
01 Jun - 21:36:50 10° W 21:39:40 26° NNW 21:42:29 10° NE visible
01 Jun - 23:14:54 10° NW 23:16:55 15° N 23:18:56 10° NE visible
02 Jun - 00:51:30 10° NW 00:54:13 24° NNE 00:56:56 10° ENE visible
02 Jun - 02:27:39 10° WNW 02:30:55 68° SW 02:34:08 10° SE visible
02 Jun - 19:07:32 10° SSW 19:10:22 28° SE 19:13:13 10° ENE daylight
02 Jun - 20:43:39 10° W 20:46:44 38° NNW 20:49:50 10° NE daylight
02 Jun - 22:21:42 10° NW 22:23:50 16° N 22:25:59 10° NNE visible
02 Jun - 23:58:48 10° NW 00:01:12 19° NNE 00:03:36 10° ENE visible
03 Jun - 01:34:52 10° NW 01:38:08 64° NNE 01:41:22 10° ESE visible
03 Jun - 03:12:15 10° W 03:14:14 15° SW 03:16:11 10° S night (unlit)
03 Jun - 18:15:50 10° SSE 18:17:47 15° SE 18:19:43 10° E daylight
03 Jun - 19:50:37 10° WSW 19:53:52 65° NNW 19:57:08 10° NE daylight
03 Jun - 21:28:23 10° WNW 21:30:47 19° NNW 21:33:12 10° NE visible
03 Jun - 23:06:00 10° NW 23:08:09 16° N 23:10:17 10° NE visible
04 Jun - 00:42:11 10° NW 00:45:16 38° NNE 00:48:20 10° E visible
04 Jun - 02:18:46 10° WNW 02:21:38 28° SW 02:24:28 10° SSE visible
04 Jun - 18:57:51 10° SW 19:01:05 67° SE 19:04:20 10° ENE daylight
04 Jun - 20:35:02 10° WNW 20:37:46 24° NNW 20:40:30 10° NE daylight
04 Jun - 22:13:03 10° NW 22:15:03 15° N 22:17:04 10° NE visible
04 Jun - 23:49:30 10° NW 23:52:19 26° NNE 23:55:08 10° E visible
05 Jun - 01:25:44 10° WNW 01:28:56 55° SW 01:32:08 10° SE visible
05 Jun - 18:05:23 10° SSW 18:08:22 33° SE 18:11:22 10° ENE daylight
05 Jun - 19:41:47 10° W 19:44:48 34° NNW 19:47:50 10° NE daylight
05 Jun - 21:19:53 10° NW 21:21:58 16° N 21:24:03 10° NE visible
05 Jun - 22:56:49 10° NW 22:59:19 20° NNE 23:01:48 10° ENE visible
06 Jun - 00:32:54 10° NW 00:36:10 77° NE 00:39:25 10° ESE visible
06 Jun - 02:10:43 10° WSW 02:12:11 12° SW 02:13:39 10° SSW night (unlit)
06 Jun - 17:13:26 10° S 17:15:44 18° SE 17:18:02 10° E daylight
06 Jun - 18:48:41 10° WSW 18:51:54 55° NNW 18:55:08 10° NE daylight
06 Jun - 20:26:33 10° WNW 20:28:52 18° NNW 20:31:13 10° NE daylight
06 Jun - 22:04:02 10° NNW 22:06:15 17° N 22:08:27 10° NE visible
06 Jun - 23:40:10 10° NW 23:43:18 43° NNE 23:46:27 10° ESE visible
07 Jun - 01:16:55 10° W 01:19:35 23° SW 01:22:16 10° S visible
07 Jun - 17:55:49 10° SW 17:59:04 81° SE 18:02:21 10° ENE daylight
07 Jun - 19:33:12 10° WNW 19:35:49 22° NNW 19:38:29 10° NE daylight
07 Jun - 21:11:07 10° NW 21:13:08 15° N 21:15:11 10° NE daylight
07 Jun - 22:47:28 10° NW 22:50:22 28° NNE 22:53:16 10° E visible
08 Jun - 00:23:47 10° WNW 00:26:55 45° SW 00:30:02 10° SSE visible
08 Jun - 17:03:14 10° SSW 17:06:20 41° SE 17:09:25 10° ENE daylight
08 Jun - 18:39:53 10° W 18:42:50 30° NNW 18:45:47 10° NE daylight
08 Jun - 20:17:59 10° NW 20:20:02 15° N 20:22:04 10° NE daylight
08 Jun - 21:54:46 10° NW 21:57:21 21° NNE 21:59:56 10° ENE visible
08 Jun - 23:30:52 10° NW 23:34:09 89° SSW 23:37:25 10° SE visible
09 Jun - 01:09:38 10° WSW 01:10:05 10° SW 01:10:33 10° SW visible
09 Jun - 16:11:05 10° S 16:13:39 21° SE 16:16:13 10° E daylight
09 Jun - 17:46:43 10° WSW 17:49:54 47° NNW 17:53:04 10° NE daylight
09 Jun - 19:24:41 10° NW 19:26:55 17° N 19:29:10 10° NNE daylight
09 Jun - 21:02:00 10° NNW 21:04:18 17° N 21:06:34 10° NE daylight
09 Jun - 22:38:05 10° NW 22:41:18 50° NNE 22:44:29 10° ESE visible
